Debrecen, Hungary

5:46 AM CEST on August 21, 2017 (GMT +0200)
Debrecen

Weather History for LHDC - November, 2012

Change the Weather History Date:

Wednesday, November 7, 2012

  Actual Average Record
Temperature  
Mean Temperature 40 °F -  
Max Temperature 50 °F 45 °F - ()
Min Temperature 30 °F 32 °F - ()
Degree Days  
Heating Degree Days 25    
Moisture  
Dew Point 34 °F    
Average Humidity 73    
Maximum Humidity 93    
Minimum Humidity 43    
Precipitation  
Precipitation 0.00 in 0.06 in - ()
Sea Level Pressure  
Sea Level Pressure 30.15 in    
Wind  
Wind Speed 8 mph ()    
Max Wind Speed 21 mph    
Max Gust Speed 32 mph    
Visibility 7.2 miles    
Events Rain    
T = Trace of Precipitation, MM = Missing Value Source: Averaged Metar Reports

Daily Weather History Graph

Daily Weather History Graph

Search for Another Location

Airport or City:

Trip Planner

Search our weather history database for the weather conditions in past years. The results will help you decide how hot, cold, wet, or windy it might be!

Date:

Astronomy

Nov. 07, 2012 Rise Set
Actual Time 6:26 AM CET 4:07 PM CET
Civil Twilight 5:53 AM CET 4:39 PM CET
Nautical Twilight 5:17 AM CET 5:16 PM CET
Astronomical Twilight 4:41 AM CET 5:52 PM CET
Moon 11:38 PM CET (11/7) 12:33 PM CET (11/7)
Length of Visible Light 10h 45m
Length of Day
9h 40m
Last Quarter, 46% of the Moon is Illuminated
Nov 7
Last Quarter
Nov 13
New
Nov 20
First Quarter
Nov 28
Full
Dec 6
Last Quarter

Hourly Weather History & Observations

Time (CET) Temp. Windchill Dew Point Humidity Pressure Visibility Wind Dir Wind Speed Gust Speed Precip Events Conditions
1:00 AM 39 °F - 35 °F 81% 30.11 in - West 2.2 mph - -  
5:15 AM 33.8 °F 29.6 °F 30.2 °F 87% 30.12 in - SSW 4.6 mph - N/A   Clear
5:45 AM 32.0 °F 26.4 °F 30.2 °F 93% 30.12 in 6.2 mi SW 5.8 mph - N/A   Partly Cloudy
6:00 AM - - - N/A% - 6.2 mi SW 9.2 mph - N/A   Clear
6:15 AM 30.2 °F - 28.4 °F 93% 30.12 in - SSW 1.2 mph - N/A   Clear
6:45 AM 32.0 °F 27.5 °F 30.2 °F 93% 30.15 in - SSW 4.6 mph - N/A   Clear
7:00 AM 32 °F - 30 °F 91% 30.17 in 16 mi SSW 4.5 mph - -   Partly Cloudy
7:15 AM 32.0 °F 28.7 °F 30.2 °F 93% 30.15 in - SSW 3.5 mph - N/A   Clear
7:45 AM 35.6 °F 31.7 °F 32.0 °F 87% 30.15 in - SSW 4.6 mph - N/A   Clear
8:15 AM 37.4 °F 32.8 °F 35.6 °F 93% 30.15 in - SW 5.8 mph - N/A   Clear
8:45 AM 41.0 °F 33.9 °F 35.6 °F 81% 30.15 in - West 12.7 mph - N/A   Clear
9:00 AM - - - N/A% - - SW 13.8 mph - N/A   Dust Whirls
9:15 AM 42.8 °F 35.1 °F 35.6 °F 76% 30.15 in - West 16.1 mph - N/A   Clear
9:45 AM 44.6 °F 37.4 °F 35.6 °F 71% 30.18 in - WSW 16.1 mph - N/A   Clear
10:15 AM 46.4 °F 40.1 °F 37.4 °F 71% 30.18 in - WSW 15.0 mph - N/A   Clear
10:45 AM 48.2 °F - 33.8 °F 58% 30.18 in 6.2 mi West 15.0 mph - N/A   Partly Cloudy
11:15 AM 48.2 °F - 35.6 °F 62% 30.18 in 6.2 mi WSW 15.0 mph - N/A   Partly Cloudy
11:45 AM 48.2 °F - 35.6 °F 62% 30.15 in 6.2 mi WSW 13.8 mph - N/A   Partly Cloudy
12:00 PM - - - N/A% - 6.2 mi West 16.1 mph - N/A   Scattered Clouds
12:15 PM 50.0 °F - 35.6 °F 58% 30.15 in 6.2 mi WSW 16.1 mph - N/A   Partly Cloudy
12:21 PM 50.0 °F - 35.6 °F 58% 30.15 in - West 18.4 mph - N/A   Unknown
12:45 PM 50.0 °F - 33.8 °F 54% 30.15 in 6.2 mi West 20.7 mph - N/A   Partly Cloudy
1:00 PM 50 °F - 34 °F 43% 30.16 in 25 mi West 20.1 mph - -   Partly Cloudy
1:15 PM 50.0 °F - 33.8 °F 54% 30.15 in 6.2 mi West 20.7 mph 32.2 mph N/A   Scattered Clouds
1:45 PM 50.0 °F - 35.6 °F 58% 30.12 in - North - - N/A   Mostly Cloudy
2:15 PM 48.2 °F - 37.4 °F 66% 30.12 in - North - - N/A Rain Light Rain
2:45 PM 48.2 °F - 37.4 °F 66% 30.15 in - North - - N/A Rain Light Rain
3:15 PM 46.4 °F - 37.4 °F 71% 30.12 in - North - - N/A   Mostly Cloudy
3:45 PM 46.4 °F - 37.4 °F 71% 30.15 in - North - - N/A Rain Light Rain
4:45 PM 46.4 °F - 39.2 °F 76% 30.15 in - North - - N/A   Mostly Cloudy
5:00 PM - - - N/A% - - North - - N/A   Unknown
7:00 PM 45 °F - 37 °F 65% 30.22 in - WSW 11.2 mph - -